[[{"header":{"parameterUnit":"m.s-1","parameterCategory":1,"la1":30.2992,"la2":30.254,"lo1":-89.0895,"lo2":-89.0443,"dy":0.0025,"dx":0.0025,"nx":19,"ny":19,"refTime":"2026-03-13T21:00:00:Z","depth":0,"parameterNumber":2,"parameterNumberName":"U-component_of_WINDS"},"data":[0,0,0,-1.7442,-1.7443,-1.7491,-1.7491,-1.7567,-1.7568,0,0,0,0,0,0,0,0,0,0,0,-1.7435,-1.7436,-1.7441,-1.7443,-1.7491,-1.7491,-1.7567,-1.7568,0,0,0,0,0,0,0,0,0,0,0,-1.7435,-1.7436,-1.7437,-1.7443,-1.7491,-1.7491,-1.7567,-1.7525,0,0,0,0,0,0,0,0,0,0,-1.7477,-1.7478,-1.7435,-1.7437,-1.7443,-1.7491,-1.7491,-1.7523,-1.7528,-1.7551,0,-1.7573,0,-1.7571,-1.7574,-1.7574,0,0,0,-1.7437,-1.7474,-1.748,-1.7437,-1.7444,-1.7491,-1.7468,-1.7526,-1.7531,-1.7558,-1.7574,-1.7576,-1.7573,-1.7574,-1.7575,-1.7725,-1.7726,0,0,-1.7435,-1.7448,-1.7476,-1.7484,-1.7476,-1.7466,-1.7469,-1.7529,-1.7548,-1.7574,-1.7578,-1.7574,-1.7575,-1.7575,-1.7724,-1.7725,0,0,0,-1.7431,-1.7447,-1.745,-1.7481,-1.7488,-1.7468,-1.7471,-1.7545,-1.7545,-1.7578,-1.7575,-1.7575,-1.7576,-1.7723,-1.7724,-1.7786,0,0,0,-1.7429,-1.7444,-1.745,-1.7458,-1.7487,-1.7517,-1.7486,-1.7541,-1.7547,-1.7574,-1.7575,-1.7577,-1.7722,-1.7724,-1.7782,-1.7813,0,0,0,-1.7429,-1.7444,-1.7453,-1.7459,-1.748,-1.7516,-1.7519,-1.7542,-1.7546,-1.7574,-1.7577,-1.7721,-1.7723,-1.7778,-1.7807,-1.7858,0,0,0,-1.7434,-1.7507,-1.7455,-1.7535,-1.748,-1.7552,-1.7518,-1.7572,-1.7604,-1.7576,-1.7722,-1.7724,-1.7777,-1.7804,-1.7855,-1.7905,-1.7927,0,0,-1.7533,-1.7519,-1.7565,-1.752,-1.7606,-1.7544,-1.7639,-1.7655,-1.7646,-1.77,-1.7703,-1.7783,-1.7807,-1.7858,-1.804,-1.8057,0,0,0,-1.7601,-1.7635,-1.7655,-1.7685,-1.7699,-1.7715,-1.7715,-1.7721,-1.7766,-1.7676,-1.7814,-1.7827,-1.7857,-1.788,-1.7895,-1.7921,-1.7735,-1.7735,-1.7735,-1.7763,-1.7746,-1.7822,-1.7813,-1.7843,-1.7843,-1.7867,-1.7876,-1.785,-1.7883,-1.79,-1.8012,-1.804,-1.8051,-1.8078,-1.7923,-1.7923,-1.7924,-1.7924,-1.7909,-1.7955,-1.792,-1.7981,-1.7964,-1.8016,-1.802,-1.8,-1.8047,-1.7998,-1.8023,-1.7972,-1.8071,-1.8093,-1.7928,-1.7927,-1.7927,-1.7926,-1.7926,-1.8014,-1.8034,-1.804,-1.8083,-1.8119,-1.8106,-1.8153,-1.8136,-1.812,-1.8144,-1.8161,-1.816,-1.8159,-1.8153,-1.8154,-1.8154,-1.8154,-1.8155,-1.8155,-1.8123,-1.8127,-1.8168,-1.819,-1.8208,-1.823,-1.8231,-1.8249,-1.8265,-1.8249,-1.8249,-1.8223,-1.8082,-1.8049,-1.8161,-1.816,-1.8159,-1.8158,-1.8158,-1.8281,-1.8242,-1.8306,-1.8324,-1.8349,-1.8387,-1.8364,-1.8402,-1.8414,-1.8439,-1.8406,-1.8305,-1.8289,-1.8278,-1.825,-1.8408,-1.8408,-1.8408,-1.8408,-1.8372,-1.8362,-1.8424,-1.8455,-1.8483,-1.8468,-1.8544,-1.8546,-1.8543,-1.855,-1.8524,-1.8485,-1.8474,-1.8465,-1.845,-1.8424,-1.8622,-1.8622,-1.8622,-1.847,-1.8462,-1.8529,-1.8523,-1.8542,-1.8559,-1.863,-1.8668,-1.8656,-1.8631,-1.8556,-1.8547,-1.8484,-1.8464,-1.8439,-1.8415,-1.8367,0,0]},{"header":{"parameterUnit":"m.s-1","parameterCategory":1,"la1":30.2992,"la2":30.254,"lo1":-89.0895,"lo2":-89.0443,"dy":0.0025,"dx":0.0025,"nx":19,"ny":19,"refTime":"2026-03-13T21:00:00:Z","depth":0,"parameterNumber":3,"parameterNumberName":"V-component_of_WINDS"},"data":[0,0,0,4.0506,4.051,4.0713,4.0714,4.0955,4.0957,0,0,0,0,0,0,0,0,0,0,0,4.044,4.0441,4.0505,4.051,4.0713,4.0714,4.0955,4.0957,0,0,0,0,0,0,0,0,0,0,0,4.0439,4.0441,4.0443,4.0511,4.0712,4.0714,4.0954,4.0806,0,0,0,0,0,0,0,0,0,0,4.0612,4.0547,4.0441,4.0443,4.0512,4.0712,4.0714,4.0799,4.0815,4.0857,0,4.0897,0,4.0931,4.0973,4.0973,0,0,0,4.0513,4.0534,4.0594,4.0443,4.0514,4.0712,4.0622,4.0809,4.0827,4.0878,4.0901,4.091,4.0935,4.0974,4.0975,4.1215,4.1216,0,0,4.0502,4.0472,4.0581,4.0606,4.0579,4.0616,4.0628,4.082,4.084,4.0902,4.0916,4.0939,4.0976,4.0977,4.1214,4.1215,0,0,0,4.0468,4.0464,4.052,4.0595,4.0633,4.0621,4.0636,4.0832,4.0853,4.0919,4.0942,4.0977,4.098,4.1213,4.1215,4.1234,0,0,0,4.0461,4.0445,4.0515,4.0499,4.063,4.0737,4.0644,4.0839,4.0862,4.0941,4.0977,4.0982,4.1212,4.1214,4.1232,4.1247,0,0,0,4.0428,4.0441,4.0469,4.0497,4.0584,4.0734,4.0766,4.0845,4.0876,4.0974,4.0983,4.1211,4.1214,4.1229,4.1244,4.13,0,0,0,4.0384,4.0483,4.0469,4.0588,4.0582,4.0747,4.0765,4.0889,4.0975,4.0978,4.1212,4.1214,4.1228,4.1241,4.1297,4.1341,4.1357,0,0,4.0493,4.0495,4.0568,4.0561,4.0721,4.0718,4.088,4.0985,4.1019,4.1146,4.1153,4.1233,4.1243,4.1299,4.1463,4.1476,0,0,0,4.0592,4.0643,4.0692,4.0775,4.0859,4.0931,4.1015,4.1053,4.1163,4.1081,4.1271,4.1278,4.1312,4.1333,4.1344,4.1373,4.1224,4.1224,4.1224,4.0702,4.0743,4.0864,4.0928,4.1007,4.1092,4.1158,4.1223,4.124,4.1284,4.1321,4.1416,4.1441,4.1449,4.1479,4.135,4.135,4.135,4.135,4.0862,4.094,4.0961,4.1086,4.1126,4.1229,4.1313,4.1321,4.142,4.1392,4.1424,4.1388,4.1462,4.149,4.1352,4.1352,4.1351,4.1351,4.1351,4.0936,4.098,4.1028,4.1149,4.1236,4.1297,4.1391,4.1424,4.1455,4.1487,4.1528,4.1527,4.1528,4.1505,4.1505,4.1505,4.1506,4.1506,4.1506,4.0994,4.1046,4.1124,4.1221,4.1276,4.1353,4.1438,4.1491,4.1559,4.1575,4.1575,4.1584,4.1464,4.1431,4.1511,4.151,4.151,4.1509,4.1509,4.1137,4.111,4.1229,4.1285,4.1399,4.1481,4.1523,4.1629,4.1678,4.1722,4.1726,4.1632,4.1636,4.1627,4.16,4.1719,4.1719,4.1719,4.172,4.1197,4.1203,4.1332,4.1418,4.1506,4.1555,4.1682,4.1747,4.1809,4.1841,4.1829,4.1796,4.1786,4.1796,4.1784,4.1758,4.1916,4.1916,4.1916,4.1285,4.1301,4.1406,4.147,4.1561,4.1637,4.1757,4.185,4.1914,4.1924,4.1865,4.1857,4.1805,4.1787,4.1793,4.1774,4.1728,0,0]}]]